Regional Weather Roundup
Issued by NWS

Home | Current Version | Previous Version | Graphics & Text | Print | Product List | Glossary Off
Versions: 1 2 3 4 5 6 7 8 9 10 11 12 13 14 15 16 17 18 19 20 21 22 23 24 25 26 27 28 29 30 31 32 33 34 35 36 37 38 39 40 41 42 43 44 45 46 47 48 49 50

000
ASUS43 KMPX 282201
RWRMN
WEATHER ROUNDUP FOR MINNESOTA
NATIONAL WEATHER SERVICE TWIN CITIES/CHANHASSEN MN
500 PM CDT WED SEP 28 2016


NOTE: "FAIR" INDICATES FEW OR NO CLOUDS BELOW 12,000 FEET WITH NO
SIGNIFICANT WEATHER AND/OR OBSTRUCTIONS TO VISIBILITY. N/A MEANS
CURRENT SKY AND/OR WEATHER CONDITIONS ARE NOT AVAILABLE.

MNZ060>063-068>070-282300-
   Twin Cities Metro

CITY           SKY/WX    TMP DP  RH WIND       PRES   REMARKS
TWIN CITIES    CLOUDY    61  49  64 N14       30.25R
ST PAUL        CLOUDY    60  50  69 N13       30.26R
CRYSTAL        CLOUDY    61  47  59 N9        30.26R
BLAINE         CLOUDY    61  50  67 N10G17    30.26R
LAKEVILLE      CLOUDY    61  50  67 N13G18    30.25R
EDEN PRAIRIE   CLOUDY    61  49  64 N12G20    30.24R
LAKEVILLE      CLOUDY    61  50  67 N13G18    30.25R
SOUTH ST PAUL  CLOUDY    61  49  64 N13G18    30.25R
LAKE ELMO      CLOUDY    59  52  77 N9        30.26R
$$
MNZ001>005-007-008-013>017-022>024-027-028-282300-
   Northwest Minnesota

CITY           SKY/WX    TMP DP  RH WIND       PRES   REMARKS
BEMIDJI        CLOUDY    57  47  69 NE5       30.33R
HALLOCK        MOSUNNY   57  48  72 CALM      30.35S
ROSEAU         CLOUDY    57  50  77 CALM      30.36R
WARROAD        CLOUDY    57  48  72 CALM      30.36R
CROOKSTON      CLOUDY    61  48  63 CALM      30.34S
FOSSTON        CLOUDY    55  48  76 E5        30.35R
DETROIT LAKES  MOSUNNY   61  46  59 CALM      30.33R
MOORHEAD       MOSUNNY   64  46  52 N8        30.32R
PARK RAPIDS    PTSUNNY   61  43  51 E7        30.32R
MAHNOMEN       CLOUDY    59  47  63 N5        30.32S
$$
MNZ006-009>011-018-025>026-282300-
   North Central Minnesota

CITY           SKY/WX    TMP DP  RH WIND       PRES   REMARKS
BAUDETTE       CLOUDY    59  50  72 NW7       30.34R
FLAG ISLAND    CLOUDY    57  50  77 N6        30.34R
INTL FALLS     MOSUNNY   61  47  59 CALM      30.33R
WASKISH        CLOUDY    59  48  67 NE3       30.34R
BIG FORK       CLOUDY    57  48  72 N3        30.33R
GRAND RAPIDS   CLOUDY    57  46  66 N6        30.34R
COOK           CLOUDY    57  48  72 CALM      30.33R
WALKER         CLOUDY    57  47  70 N6        30.32S
$$
MNZ012-019>021-037-282300-
   Northeast Minnesota

CITY           SKY/WX    TMP DP  RH WIND       PRES   REMARKS
DULUTH         CLOUDY    56  50  80 SE7       30.30R
ELY            CLOUDY    55  48  76 NE5       30.32R
HIBBING        CLOUDY    57  48  72 N6        30.31R
EVELETH        CLOUDY    58  47  66 CALM      30.32R
DULUTH HARBOR  CLOUDY    55  54  94 NE6       30.31R
TWO HARBORS    PTSUNNY   61  52  72 E5        30.28R
SILVER BAY     CLOUDY    57  52  82 CALM      30.28R
GRAND MARAIS     N/A     56  50  80 CALM      30.29R
G MARAIS ARPRT CLOUDY    55  45  67 N5        30.31R
$$
MNZ029>031-032-039>041-046>048-054>057-064-282300-
   West Central Minnesota

CITY           SKY/WX    TMP DP  RH WIND       PRES   REMARKS
FERGUS FALLS   SUNNY     61  46  59 CALM      30.33R
MORRIS         MOSUNNY   64  46  52 N9        30.29S
ALEXANDRIA     PTSUNNY   61  47  59 NE9       30.31R
ELBOW LAKE     FAIR      59  47  63 E3        30.31S
WADENA         MOSUNNY   61  46  59 E7        30.31R
GLENWOOD       MOSUNNY   63  48  59 N8        30.30R
BENSON         MOSUNNY   64  45  48 NE9       30.29R
ORTONVILLE     SUNNY     63  45  51 N5        30.30S
MADISON        MOSUNNY   66  48  52 N6        30.29R
WILLMAR        FAIR      63  48  59 NE10      30.30R
$$
MNZ033>034-036-042>043-049>051-058-059-282300-
   Central Minnesota

CITY           SKY/WX    TMP DP  RH WIND       PRES   REMARKS
ST CLOUD       CLOUDY    61  48  62 N8        30.28R
SAUK CENTRE    FAIR      60  47  62 NE8       30.31R
PAYNESVILLE    CLOUDY    59  47  64 NE7       30.30R
AITKIN         CLOUDY    61  45  55 N3        30.30R
PINE RIVER     CLOUDY    57  48  72 N6        30.34S
BRAINERD       CLOUDY    58  46  64 N6        30.32R
STAPLES        CLOUDY    57  46  67 NE7       30.32R
LONG PRAIRIE   PTSUNNY   59  46  63 N5        30.31R
LITTLE FALLS   CLOUDY    57  45  62 N3        30.31R
LITCHFIELD     CLOUDY    63  50  63 N9        30.29R
BUFFALO        CLOUDY    60  48  65 N8        30.29R
MAPLE LAKE     CLOUDY    61  51  69 N5        30.29R
HUTCHINSON     PTSUNNY   63  50  61 N9        30.29R
$$
MNZ037-044-045-052-053-282300-
   East Central Minnesota

CITY           SKY/WX    TMP DP  RH WIND       PRES   REMARKS
PRINCETON      CLOUDY    61  50  67 N9        30.29R
MORA           CLOUDY    55  46  71 CALM      30.31R
CAMBRIDGE      CLOUDY    61  48  63 N3        30.27R
MOOSE LAKE     CLOUDY    57  48  72 NE6       30.28R
HINCKLEY       CLOUDY    59  50  72 N6        30.29R
CLOQUET        CLOUDY    55  48  76 E5        30.30R
MCGREGOR       CLOUDY    59  48  67 N5        30.31R
$$
MNZ071>073-080-081-089-090-097-098-282300-
   Southwest Minnesota

CITY           SKY/WX    TMP DP  RH WIND       PRES   REMARKS
MONTEVIDEO     PTSUNNY   68  46  45 E9G20     30.29S
GRANITE FALLS  MOSUNNY   65  48  54 N9        30.28S
CANBY          MOSUNNY   63  48  58 NE7       30.30S
MARSHALL       MOSUNNY   63  47  55 N10       30.28R
REDWOOD FALLS  PTSUNNY   65  45  48 NE9       30.27R
OLIVIA         PTSUNNY   63  46  55 NE12      30.26S
PIPESTONE      SUNNY     59  45  58 NE12      30.29R
WINDOM         MOSUNNY   63  46  55 N12       30.26R
WORTHINGTON    CLOUDY    60  47  61 N12G18    30.27R
JACKSON        CLOUDY    61  45  55 NE13G20   30.26R
TRACY          CLOUDY    64  49  59 N12       30.27S
$$
MNZ065>067-074>077-082>085-091>093-282300-
   South Central Minnesota

CITY           SKY/WX    TMP DP  RH WIND       PRES   REMARKS
MANKATO        PTSUNNY   60  48  64 N16       30.25R
NEW ULM        PTSUNNY   61  46  59 N10G17    30.26R
ST JAMES       CLOUDY    63  46  55 N9        30.27R
FAIRMONT       CLOUDY    61  48  62 N12G20    30.26R
GLENCOE        CLOUDY    61  52  73 N8        30.27R
FARIBAULT      CLOUDY    61  50  67 N7        30.24R
OWATONNA       CLOUDY    61  48  63 N13       30.22R
WASECA         CLOUDY    61  46  59 N16       30.24R
ALBERT LEA     PTSUNNY   63  48  59 N13       30.22R
$$
MNZ078>079-086>088-094>096-282300-
   Southeast Minnesota

CITY           SKY/WX    TMP DP  RH WIND       PRES   REMARKS
ROCHESTER      CLOUDY    63  48  58 N16G22    30.20R
RED WING       CLOUDY    63  48  59 NE8G17    30.21R
DODGE CENTER   CLOUDY    61  48  63 N15G21    30.21R
WINONA         CLOUDY    63  46  55 NE7       30.18R
AUSTIN         PTSUNNY   61  50  67 N12G22    30.20R
PRESTON        PTSUNNY   62  47  59 N9G22     30.18R
$$
ABBREVIATIONS USED IN REMARKS
   TC - TEMPERATURES IN CELSIUS
  WCI - WIND CHILL INDEX
   HX - HEAT INDEX
  VSB - VISIBILITY
$$




USA.gov is the U.S. government's official web portal to all federal, state and local government web resources and services.